Time,TemperatureF,DewpointF,PressureIn,WindDirection,WindDirectionDegrees,WindSpeedMPH,WindSpeedGustMPH,Humidity,HourlyPrecipIn,Conditions,Clouds,dailyrainin,SoftwareType,DateUTC
2013-07-04 00:02:00,79.0,-99.9,30.29,SSE,164,12.0,16.0,-999,-99.99,,,-99.99,,2013-07-04 04:02:00,
2013-07-04 00:11:00,79.0,-99.9,30.29,SSE,164,12.0,16.0,-999,-99.99,,,-99.99,,2013-07-04 04:11:00,
2013-07-04 00:22:00,80.0,-99.9,30.29,SSE,164,11.0,16.0,-999,-99.99,,,-99.99,,2013-07-04 04:22:00,
2013-07-04 00:33:00,79.0,-99.9,30.29,SSE,164,13.0,16.0,-999,-99.99,,,-99.99,,2013-07-04 04:33:00,
2013-07-04 00:43:00,79.0,-99.9,30.29,SSE,164,13.0,17.0,-999,-99.99,,,-99.99,,2013-07-04 04:43:00,
2013-07-04 01:33:00,80.0,-99.9,30.29,SSE,167,9.0,14.0,-999,-99.99,,,-99.99,,2013-07-04 05:33:00,
2013-07-04 01:43:00,79.0,-99.9,30.29,SSE,167,10.0,15.0,-999,-99.99,,,-99.99,,2013-07-04 05:43:00,
2013-07-04 01:52:00,79.0,-99.9,30.30,South,169,9.0,14.0,-999,-99.99,,,-99.99,,2013-07-04 05:52:00,
2013-07-04 02:01:00,79.0,-99.9,30.29,South,172,10.0,14.0,-999,-99.99,,,-99.99,,2013-07-04 06:01:00,
2013-07-04 02:11:00,79.0,-99.9,30.29,SSE,168,9.0,14.0,-999,-99.99,,,-99.99,,2013-07-04 06:11:00,
2013-07-04 02:34:00,79.0,-99.9,30.29,South,169,7.0,12.0,-999,-99.99,,,-99.99,,2013-07-04 06:34:00,
2013-07-04 02:43:00,79.0,-99.9,30.29,South,171,8.0,12.0,-999,-99.99,,,-99.99,,2013-07-04 06:43:00,
2013-07-04 02:53:00,79.0,-99.9,30.28,SSE,167,7.0,10.0,-999,-99.99,,,-99.99,,2013-07-04 06:53:00,
2013-07-04 03:02:00,79.0,-99.9,30.28,SSE,167,6.0,11.0,-999,-99.99,,,-99.99,,2013-07-04 07:02:00,
2013-07-04 03:12:00,79.0,-99.9,30.28,SSE,167,9.0,12.0,-999,-99.99,,,-99.99,,2013-07-04 07:12:00,
2013-07-04 03:34:00,79.0,-99.9,30.27,SSE,167,8.0,11.0,-999,-99.99,,,-99.99,,2013-07-04 07:34:00,
2013-07-04 03:43:00,79.0,-99.9,30.27,SSE,166,10.0,13.0,-999,-99.99,,,-99.99,,2013-07-04 07:43:00,
2013-07-04 03:52:00,79.0,-99.9,30.27,SSE,165,10.0,13.0,-999,-99.99,,,-99.99,,2013-07-04 07:52:00,
2013-07-04 04:02:00,79.0,-99.9,30.27,SSE,163,11.0,13.0,-999,-99.99,,,-99.99,,2013-07-04 08:02:00,
2013-07-04 04:33:00,79.0,-99.9,30.27,SSE,165,12.0,16.0,-999,-99.99,,,-99.99,,2013-07-04 08:33:00,
2013-07-04 04:43:00,79.0,-99.9,30.27,SSE,163,9.0,14.0,-999,-99.99,,,-99.99,,2013-07-04 08:43:00,
2013-07-04 04:53:00,79.0,-99.9,30.27,SSE,165,10.0,12.0,-999,-99.99,,,-99.99,,2013-07-04 08:53:00,
2013-07-04 05:02:00,79.0,-99.9,30.27,SSE,167,8.0,15.0,-999,-99.99,,,-99.99,,2013-07-04 09:02:00,
2013-07-04 05:11:00,79.0,-99.9,30.27,SSE,167,8.0,15.0,-999,-99.99,,,-99.99,,2013-07-04 09:11:00,
2013-07-04 05:33:00,79.0,-99.9,30.28,South,169,7.0,12.0,-999,-99.99,,,-99.99,,2013-07-04 09:33:00,
2013-07-04 06:01:00,79.0,-99.9,30.28,South,174,10.0,13.0,-999,-99.99,,,-99.99,,2013-07-04 10:01:00,
2013-07-04 06:22:00,79.0,-99.9,30.28,South,172,9.0,12.0,-999,-99.99,,,-99.99,,2013-07-04 10:22:00,
2013-07-04 06:34:00,79.0,-99.9,30.29,SSE,164,8.0,11.0,-999,-99.99,,,-99.99,,2013-07-04 10:34:00,
2013-07-04 06:53:00,79.0,-99.9,30.29,South,170,7.0,11.0,-999,-99.99,,,-99.99,,2013-07-04 10:53:00,
2013-07-04 07:02:00,79.0,-99.9,30.29,South,177,7.0,10.0,-999,-99.99,,,-99.99,,2013-07-04 11:02:00,
2013-07-04 07:12:00,80.0,-99.9,30.29,South,173,6.0,11.0,-999,-99.99,,,-99.99,,2013-07-04 11:12:00,
2013-07-04 07:34:00,80.0,-99.9,30.30,SSE,168,6.0,11.0,-999,-99.99,,,-99.99,,2013-07-04 11:34:00,
2013-07-04 07:43:00,80.0,-99.9,30.30,South,177,9.0,11.0,-999,-99.99,,,-99.99,,2013-07-04 11:43:00,
2013-07-04 08:02:00,80.0,-99.9,30.30,SSE,168,7.0,11.0,-999,-99.99,,,-99.99,,2013-07-04 12:02:00,
2013-07-04 08:33:00,80.0,-99.9,30.31,SSE,167,9.0,11.0,-999,-99.99,,,-99.99,,2013-07-04 12:33:00,
2013-07-04 08:43:00,80.0,-99.9,30.31,SSE,167,9.0,12.0,-999,-99.99,,,-99.99,,2013-07-04 12:43:00,
2013-07-04 08:52:00,80.0,-99.9,30.32,SSE,162,8.0,11.0,-999,-99.99,,,-99.99,,2013-07-04 12:52:00,
2013-07-04 09:33:00,81.0,-99.9,30.31,SSE,159,6.0,10.0,-999,-99.99,,,-99.99,,2013-07-04 13:33:00,
2013-07-04 09:43:00,81.0,-99.9,30.31,SSE,162,7.0,11.0,-999,-99.99,,,-99.99,,2013-07-04 13:43:00,
2013-07-04 10:02:00,81.0,-99.9,30.31,SSE,165,8.0,9.0,-999,-99.99,,,-99.99,,2013-07-04 14:02:00,
2013-07-04 10:43:00,81.0,-99.9,30.32,SSE,166,6.0,9.0,-999,-99.99,,,-99.99,,2013-07-04 14:43:00,
2013-07-04 11:33:00,82.0,-99.9,30.32,SSE,160,7.0,11.0,-999,-99.99,,,-99.99,,2013-07-04 15:33:00,
2013-07-04 11:43:00,82.0,-99.9,30.32,South,180,6.0,9.0,-999,-99.99,,,-99.99,,2013-07-04 15:43:00,
2013-07-04 11:53:00,81.0,-99.9,30.32,SSE,154,6.0,9.0,-999,-99.99,,,-99.99,,2013-07-04 15:53:00,
2013-07-04 12:02:00,82.0,-99.9,30.32,SSE,148,6.0,9.0,-999,-99.99,,,-99.99,,2013-07-04 16:02:00,
2013-07-04 12:11:00,82.0,-99.9,30.32,SSE,153,7.0,9.0,-999,-99.99,,,-99.99,,2013-07-04 16:11:00,
2013-07-04 12:33:00,81.0,-99.9,30.32,SSE,161,11.0,12.0,-999,-99.99,,,-99.99,,2013-07-04 16:33:00,
2013-07-04 12:43:00,82.0,-99.9,30.32,SSE,157,9.0,12.0,-999,-99.99,,,-99.99,,2013-07-04 16:43:00,
2013-07-04 12:52:00,82.0,-99.9,30.31,SSE,159,11.0,13.0,-999,-99.99,,,-99.99,,2013-07-04 16:52:00,
2013-07-04 13:02:00,83.0,-99.9,30.31,SSE,150,9.0,13.0,-999,-99.99,,,-99.99,,2013-07-04 17:02:00,
2013-07-04 13:12:00,82.0,-99.9,30.31,SSE,154,9.0,14.0,-999,-99.99,,,-99.99,,2013-07-04 17:12:00,
2013-07-04 13:34:00,82.0,-99.9,30.31,SE,141,11.0,13.0,-999,-99.99,,,-99.99,,2013-07-04 17:34:00,
2013-07-04 13:43:00,82.0,-99.9,30.31,SSE,155,11.0,12.0,-999,-99.99,,,-99.99,,2013-07-04 17:43:00,
2013-07-04 13:53:00,83.0,-99.9,30.31,SSE,164,10.0,13.0,-999,-99.99,,,-99.99,,2013-07-04 17:53:00,
2013-07-04 14:02:00,82.0,-99.9,30.31,SSE,157,13.0,14.0,-999,-99.99,,,-99.99,,2013-07-04 18:02:00,
2013-07-04 14:11:00,82.0,-99.9,30.30,SSE,156,11.0,14.0,-999,-99.99,,,-99.99,,2013-07-04 18:11:00,
2013-07-04 14:33:00,82.0,-99.9,30.31,SSE,160,11.0,13.0,-999,-99.99,,,-99.99,,2013-07-04 18:33:00,
2013-07-04 14:43:00,82.0,-99.9,30.31,SSE,156,11.0,12.0,-999,-99.99,,,-99.99,,2013-07-04 18:43:00,
2013-07-04 14:52:00,83.0,-99.9,30.30,SSE,162,9.0,12.0,-999,-99.99,,,-99.99,,2013-07-04 18:52:00,
2013-07-04 15:02:00,82.0,-99.9,30.30,SSE,158,11.0,13.0,-999,-99.99,,,-99.99,,2013-07-04 19:02:00,
2013-07-04 15:12:00,83.0,-99.9,30.30,SSE,152,8.0,13.0,-999,-99.99,,,-99.99,,2013-07-04 19:12:00,
2013-07-04 15:34:00,82.0,-99.9,30.29,SSE,157,9.0,12.0,-999,-99.99,,,-99.99,,2013-07-04 19:34:00,
2013-07-04 15:43:00,83.0,-99.9,30.29,SSE,150,7.0,14.0,-999,-99.99,,,-99.99,,2013-07-04 19:43:00,
2013-07-04 15:53:00,82.0,-99.9,30.28,SSE,151,10.0,14.0,-999,-99.99,,,-99.99,,2013-07-04 19:53:00,
2013-07-04 16:02:00,82.0,-99.9,30.28,SE,143,12.0,15.0,-999,-99.99,,,-99.99,,2013-07-04 20:02:00,
2013-07-04 16:34:00,82.0,-99.9,30.27,SE,146,12.0,17.0,-999,-99.99,,,-99.99,,2013-07-04 20:34:00,
2013-07-04 16:42:00,82.0,-99.9,30.27,SE,144,14.0,17.0,-999,-99.99,,,-99.99,,2013-07-04 20:42:00,
2013-07-04 16:53:00,82.0,-99.9,30.27,SSE,156,12.0,15.0,-999,-99.99,,,-99.99,,2013-07-04 20:53:00,
2013-07-04 17:02:00,82.0,-99.9,30.27,SSE,153,10.0,16.0,-999,-99.99,,,-99.99,,2013-07-04 21:02:00,
2013-07-04 17:22:00,82.0,-99.9,30.27,SSE,157,11.0,15.0,-999,-99.99,,,-99.99,,2013-07-04 21:22:00,
2013-07-04 17:53:00,82.0,-99.9,30.26,SSE,157,11.0,15.0,-999,-99.99,,,-99.99,,2013-07-04 21:53:00,
2013-07-04 18:02:00,82.0,-99.9,30.26,SSE,156,11.0,17.0,-999,-99.99,,,-99.99,,2013-07-04 22:02:00,
2013-07-04 18:12:00,82.0,-99.9,30.26,SSE,162,11.0,15.0,-999,-99.99,,,-99.99,,2013-07-04 22:12:00,
2013-07-04 18:33:00,82.0,-99.9,30.26,SSE,168,10.0,14.0,-999,-99.99,,,-99.99,,2013-07-04 22:33:00,
2013-07-04 18:43:00,82.0,-99.9,30.26,SSE,165,10.0,13.0,-999,-99.99,,,-99.99,,2013-07-04 22:43:00,
2013-07-04 18:52:00,82.0,-99.9,30.26,SSE,167,8.0,14.0,-999,-99.99,,,-99.99,,2013-07-04 22:52:00,
2013-07-04 19:02:00,82.0,-99.9,30.27,SSE,167,10.0,14.0,-999,-99.99,,,-99.99,,2013-07-04 23:02:00,
2013-07-04 19:12:00,82.0,-99.9,30.26,SSE,166,8.0,14.0,-999,-99.99,,,-99.99,,2013-07-04 23:12:00,
2013-07-04 19:43:00,81.0,-99.9,30.27,South,170,9.0,14.0,-999,-99.99,,,-99.99,,2013-07-04 23:43:00,
2013-07-04 20:01:00,81.0,-99.9,30.27,SSE,164,10.0,13.0,-999,-99.99,,,-99.99,,2013-07-05 00:01:00,
2013-07-04 20:12:00,81.0,-99.9,30.27,SSE,163,9.0,12.0,-999,-99.99,,,-99.99,,2013-07-05 00:12:00,
2013-07-04 20:22:00,81.0,-99.9,30.27,SSE,163,9.0,12.0,-999,-99.99,,,-99.99,,2013-07-05 00:22:00,
2013-07-04 20:32:00,81.0,-99.9,30.27,South,171,9.0,12.0,-999,-99.99,,,-99.99,,2013-07-05 00:32:00,
2013-07-04 20:43:00,81.0,-99.9,30.27,SSW,196,7.0,12.0,-999,-99.99,,,-99.99,,2013-07-05 00:43:00,
2013-07-04 20:52:00,79.0,-99.9,30.27,SSW,198,4.0,9.0,-999,-99.99,,,-99.99,,2013-07-05 00:52:00,
2013-07-04 21:01:00,80.0,-99.9,30.27,SSW,205,3.0,7.0,-999,-99.99,,,-99.99,,2013-07-05 01:01:00,
2013-07-04 21:11:00,80.0,-99.9,30.27,SSW,196,4.0,10.0,-999,-99.99,,,-99.99,,2013-07-05 01:11:00,
2013-07-04 21:32:00,80.0,-99.9,30.27,SSE,168,9.0,15.0,-999,-99.99,,,-99.99,,2013-07-05 01:32:00,
2013-07-04 21:42:00,80.0,-99.9,30.27,SSE,166,11.0,15.0,-999,-99.99,,,-99.99,,2013-07-05 01:42:00,
2013-07-04 21:52:00,80.0,-99.9,30.27,SSE,163,11.0,14.0,-999,-99.99,,,-99.99,,2013-07-05 01:52:00,
2013-07-04 22:02:00,80.0,-99.9,30.27,SSE,168,10.0,14.0,-999,-99.99,,,-99.99,,2013-07-05 02:02:00,
2013-07-04 22:32:00,80.0,-99.9,30.28,SSE,166,9.0,16.0,-999,-99.99,,,-99.99,,2013-07-05 02:32:00,
2013-07-04 22:43:00,80.0,-99.9,30.29,SSE,167,9.0,12.0,-999,-99.99,,,-99.99,,2013-07-05 02:43:00,
2013-07-04 22:53:00,80.0,-99.9,30.28,SSE,168,11.0,15.0,-999,-99.99,,,-99.99,,2013-07-05 02:53:00,
2013-07-04 23:02:00,80.0,-99.9,30.29,South,174,10.0,15.0,-999,-99.99,,,-99.99,,2013-07-05 03:02:00,
2013-07-04 23:11:00,80.0,-99.9,30.29,South,170,9.0,13.0,-999,-99.99,,,-99.99,,2013-07-05 03:11:00,
2013-07-04 23:33:00,80.0,-99.9,30.29,South,173,9.0,13.0,-999,-99.99,,,-99.99,,2013-07-05 03:33:00,
2013-07-04 23:42:00,80.0,-99.9,30.29,South,173,8.0,13.0,-999,-99.99,,,-99.99,,2013-07-05 03:42:00,
2013-07-04 23:52:00,80.0,-99.9,30.29,South,179,7.0,15.0,-999,-99.99,,,-99.99,,2013-07-05 03:52:00,